ABR6724 LEMD-EHAM

Flight info

Callsign ABR6724
Flight time 1h 54m
Altitude 34000
Route RBO DCT OSTIX N867 DGO N858 ABRIX DCT CNA DCT ADABI DCT BOKNO UN858 VANAD UN874 BAMES UT191 PODEM UN873 BAZOS DCT LUMIL DCT BELOB UY873 DENUT
Aircraft A306/H-SDE3FGHIRWY/LB1

Departure

Time 2026-05-04 14:55
Airport Adolfo Suárez Madrid–Barajas Airport (LEMD)

Arrival

Time 2026-05-04 16:49
Airport Amsterdam Airport Schiphol (EHAM)
Time Latitude Longitude Altitude Speed Heading
2026-05-04 13:48 40.46045 -3.56221 1968 ft 0 kts 360°
2026-05-04 14:45 40.46059 -3.56221 1968 ft 2 kts
2026-05-04 14:46 40.46065 -3.56221 1968 ft 0 kts 360°
2026-05-04 14:46 40.46092 -3.56224 1968 ft 5 kts 341°
2026-05-04 14:46 40.46110 -3.56280 1971 ft 9 kts 279°
2026-05-04 14:46 40.46113 -3.56360 1972 ft 6 kts 269°
2026-05-04 14:47 40.46113 -3.56411 1973 ft 8 kts 271°
2026-05-04 14:47 40.46140 -3.56505 1980 ft 14 kts 323°
2026-05-04 14:47 40.46234 -3.56507 1980 ft 14 kts
2026-05-04 14:47 40.46330 -3.56498 1979 ft 13 kts
2026-05-04 14:48 40.46440 -3.56492 1979 ft 19 kts
2026-05-04 14:48 40.46585 -3.56483 1982 ft 21 kts
2026-05-04 14:48 40.46722 -3.56471 1983 ft 21 kts
2026-05-04 14:48 40.46881 -3.56457 1981 ft 22 kts
2026-05-04 14:49 40.47036 -3.56451 1986 ft 21 kts 351°
2026-05-04 14:49 40.47165 -3.56525 1986 ft 22 kts 329°
2026-05-04 14:49 40.47292 -3.56652 1992 ft 23 kts 321°
2026-05-04 14:49 40.47407 -3.56773 1995 ft 19 kts 322°
2026-05-04 14:50 40.47502 -3.56867 1998 ft 15 kts 323°
2026-05-04 14:50 40.47592 -3.56957 2000 ft 21 kts 322°
2026-05-04 14:50 40.47719 -3.57090 2001 ft 25 kts 321°
2026-05-04 14:50 40.47866 -3.57239 2004 ft 28 kts 322°
2026-05-04 14:51 40.48012 -3.57388 2005 ft 26 kts 323°
2026-05-04 14:51 40.48149 -3.57528 2002 ft 24 kts 321°
2026-05-04 14:51 40.48271 -3.57653 2000 ft 22 kts 321°
2026-05-04 14:51 40.48368 -3.57749 1999 ft 12 kts 323°
2026-05-04 14:52 40.48448 -3.57817 1998 ft 19 kts 330°
2026-05-04 14:52 40.48571 -3.57897 2003 ft 19 kts 333°
2026-05-04 14:52 40.48688 -3.57927 2005 ft 19 kts 358°
2026-05-04 14:52 40.48760 -3.57850 2002 ft 14 kts 82°
2026-05-04 14:53 40.48761 -3.57712 1998 ft 15 kts 90°
2026-05-04 14:53 40.48741 -3.57599 1996 ft 11 kts 134°
2026-05-04 14:53 40.48676 -3.57569 1998 ft 10 kts 175°
2026-05-04 14:53 40.48615 -3.57561 1999 ft 9 kts 174°
2026-05-04 14:54 40.48521 -3.57547 2000 ft 18 kts 173°
2026-05-04 14:54 40.48400 -3.57512 2002 ft 16 kts 146°
2026-05-04 14:54 40.48285 -3.57397 2005 ft 37 kts 141°
2026-05-04 14:54 40.47926 -3.57029 2003 ft 94 kts 142°
2026-05-04 14:55 40.47274 -3.56366 1992 ft 141 kts 141°
2026-05-04 14:55 40.46376 -3.55450 1962 ft 184 kts 144°
2026-05-04 14:55 40.45368 -3.54410 2611 ft 181 kts 146°
2026-05-04 14:55 40.44438 -3.53282 3389 ft 190 kts 132°
2026-05-04 14:56 40.43599 -3.51818 4279 ft 207 kts 129°
2026-05-04 14:56 40.42644 -3.50371 5090 ft 211 kts 135°
2026-05-04 14:56 40.41599 -3.48986 5855 ft 220 kts 139°
2026-05-04 14:56 40.40442 -3.47561 6398 ft 234 kts 141°
2026-05-04 14:57 40.39240 -3.46121 7073 ft 239 kts 142°
2026-05-04 14:57 40.38014 -3.44638 7835 ft 240 kts 141°
2026-05-04 14:57 40.36785 -3.43141 8613 ft 242 kts 142°
2026-05-04 14:57 40.35425 -3.41879 9390 ft 239 kts 154°
2026-05-04 14:58 40.33968 -3.40808 10097 ft 241 kts 156°
2026-05-04 14:58 40.32485 -3.39722 10678 ft 247 kts 152°
2026-05-04 14:58 40.31172 -3.38167 11144 ft 264 kts 129°
2026-05-04 14:58 40.30468 -3.35896 11550 ft 279 kts 101°
2026-05-04 14:59 40.30376 -3.33277 11828 ft 297 kts 90°
2026-05-04 14:59 40.30436 -3.30516 12362 ft 307 kts 89°
2026-05-04 14:59 40.31486 -3.25116 13737 ft 315 kts 53°
2026-05-04 15:00 40.32848 -3.22861 14350 ft 317 kts 47°
2026-05-04 15:00 40.34277 -3.20676 14951 ft 321 kts 46°
2026-05-04 15:00 40.35740 -3.18441 15555 ft 325 kts 47°
2026-05-04 15:01 40.38754 -3.13968 16760 ft 328 kts 37°
2026-05-04 15:01 40.40669 -3.12484 17312 ft 321 kts 12°
2026-05-04 15:01 40.42836 -3.12169 17890 ft 311 kts 348°
2026-05-04 15:01 40.44952 -3.12651 18467 ft 309 kts 342°
2026-05-04 15:02 40.47053 -3.13283 18991 ft 310 kts 341°
2026-05-04 15:02 40.49156 -3.13927 19513 ft 312 kts 342°
2026-05-04 15:02 40.51283 -3.14572 20011 ft 314 kts 342°
2026-05-04 15:02 40.53420 -3.15210 20523 ft 316 kts 342°
2026-05-04 15:03 40.55577 -3.15849 21030 ft 319 kts 342°
2026-05-04 15:03 40.57749 -3.16492 21456 ft 324 kts 342°
2026-05-04 15:03 40.59989 -3.17156 21681 ft 335 kts 342°
2026-05-04 15:03 40.62299 -3.17841 21921 ft 346 kts 342°
2026-05-04 15:04 40.64691 -3.18548 22132 ft 357 kts 343°
2026-05-04 15:04 40.67153 -3.19275 22337 ft 367 kts 343°
2026-05-04 15:04 40.69651 -3.20012 22545 ft 377 kts 343°
2026-05-04 15:04 40.72247 -3.20779 22744 ft 387 kts 343°
2026-05-04 15:05 40.74908 -3.21564 22948 ft 397 kts 343°
2026-05-04 15:05 40.77634 -3.22371 23148 ft 405 kts 343°
2026-05-04 15:05 40.80409 -3.23192 23328 ft 413 kts 343°
2026-05-04 15:05 40.83266 -3.23939 23495 ft 423 kts 348°
2026-05-04 15:06 40.86254 -3.24199 23638 ft 436 kts 357°
2026-05-04 15:06 40.89307 -3.23871 23796 ft 445 kts
2026-05-04 15:06 40.92397 -3.23295 23914 ft 452 kts
2026-05-04 15:07 40.98665 -3.21836 24288 ft 461 kts
2026-05-04 15:07 41.01795 -3.21078 24509 ft 463 kts
2026-05-04 15:07 41.04971 -3.20320 24753 ft 465 kts
2026-05-04 15:07 41.08168 -3.19577 24976 ft 468 kts
2026-05-04 15:08 41.11389 -3.18841 25193 ft 470 kts
2026-05-04 15:08 41.14616 -3.18109 25443 ft 472 kts
2026-05-04 15:08 41.17857 -3.17378 25667 ft 474 kts
2026-05-04 15:08 41.21123 -3.16644 25871 ft 476 kts
2026-05-04 15:09 41.24402 -3.15907 26076 ft 478 kts
2026-05-04 15:09 41.27688 -3.15165 26283 ft 480 kts
2026-05-04 15:09 41.30987 -3.14422 26494 ft 482 kts
2026-05-04 15:10 41.37618 -3.12921 26927 ft 485 kts
2026-05-04 15:10 41.40940 -3.12167 27208 ft 485 kts
2026-05-04 15:10 41.47588 -3.10655 27731 ft 485 kts
2026-05-04 15:11 41.50916 -3.09898 27980 ft 485 kts
2026-05-04 15:11 41.54241 -3.09143 28275 ft 485 kts
2026-05-04 15:11 41.57534 -3.08395 28576 ft 484 kts
2026-05-04 15:11 41.60893 -3.07633 28853 ft 484 kts
2026-05-04 15:12 41.64180 -3.06886 29101 ft 485 kts
2026-05-04 15:12 41.67510 -3.06129 29354 ft 485 kts
2026-05-04 15:12 41.70830 -3.05373 29622 ft 485 kts
2026-05-04 15:12 41.74165 -3.04612 29857 ft 486 kts
2026-05-04 15:13 41.77509 -3.03846 30079 ft 487 kts
2026-05-04 15:13 41.80839 -3.03079 30302 ft 487 kts
2026-05-04 15:13 41.83787 -3.02399 30526 ft 486 kts
2026-05-04 15:13 41.87125 -3.01627 30763 ft 486 kts
2026-05-04 15:14 41.90465 -3.00856 30984 ft 487 kts
2026-05-04 15:14 41.93802 -3.00085 31208 ft 487 kts
2026-05-04 15:14 41.96773 -2.99397 31447 ft 487 kts
2026-05-04 15:14 42.00111 -2.98623 31693 ft 486 kts
2026-05-04 15:15 42.03408 -2.97859 31917 ft 487 kts
2026-05-04 15:15 42.06756 -2.97082 32141 ft 487 kts
2026-05-04 15:15 42.10098 -2.96306 32381 ft 487 kts
2026-05-04 15:16 42.16777 -2.94752 32856 ft 487 kts
2026-05-04 15:16 42.20118 -2.93973 33022 ft 488 kts
2026-05-04 15:16 42.26820 -2.92413 33512 ft 488 kts
2026-05-04 15:17 42.30171 -2.91632 33697 ft 488 kts
2026-05-04 15:17 42.36832 -2.90068 33978 ft 488 kts
2026-05-04 15:17 42.39820 -2.89366 33997 ft 488 kts
2026-05-04 15:18 42.46376 -2.86981 33977 ft 492 kts 22°
2026-05-04 15:19 42.55199 -2.80758 33992 ft 494 kts 27°
2026-05-04 15:19 42.64172 -2.73885 33992 ft 493 kts 28°
2026-05-04 15:20 42.69376 -2.69908 33988 ft 493 kts 27°
2026-05-04 15:20 42.75363 -2.65349 33987 ft 494 kts 28°
2026-05-04 15:21 42.81328 -2.60807 33990 ft 494 kts 28°
2026-05-04 15:22 42.90337 -2.53928 34003 ft 494 kts 28°
2026-05-04 15:22 42.98325 -2.47806 34005 ft 494 kts 28°
2026-05-04 15:23 43.04321 -2.43196 34020 ft 494 kts 28°
2026-05-04 15:23 43.10306 -2.38587 34028 ft 494 kts 28°
2026-05-04 15:24 43.22290 -2.29323 34014 ft 494 kts 28°
2026-05-04 15:25 43.28205 -2.24736 34009 ft 496 kts 29°
2026-05-04 15:26 43.37234 -2.17720 34018 ft 497 kts 29°
2026-05-04 15:26 43.46263 -2.10676 34012 ft 497 kts 29°
2026-05-04 15:27 43.55295 -2.03604 34007 ft 497 kts 29°
2026-05-04 15:28 43.63977 -1.96783 34001 ft 498 kts 30°
2026-05-04 15:29 43.72967 -1.89693 33984 ft 498 kts 30°
2026-05-04 15:30 43.93836 -1.73135 33987 ft 502 kts 30°
2026-05-04 15:31 44.02934 -1.65875 33992 ft 502 kts 30°
2026-05-04 15:32 44.17938 -1.53844 33980 ft 501 kts 30°
2026-05-04 15:34 44.32764 -1.41888 33968 ft 504 kts 31°
2026-05-04 15:34 44.41531 -1.34784 33976 ft 503 kts 31°
2026-05-04 15:35 44.50396 -1.27573 33956 ft 503 kts 31°
2026-05-04 15:36 44.59095 -1.20474 33980 ft 503 kts 31°
2026-05-04 15:36 44.65138 -1.15527 33966 ft 502 kts 31°
2026-05-04 15:37 44.71171 -1.10577 33964 ft 502 kts 31°
2026-05-04 15:37 44.77210 -1.05609 33952 ft 503 kts 31°
2026-05-04 15:38 44.83170 -1.00695 33956 ft 503 kts 31°
2026-05-04 15:38 44.89204 -0.95708 33953 ft 503 kts 31°
2026-05-04 15:39 44.95202 -0.90739 33953 ft 503 kts 31°
2026-05-04 15:40 45.04247 -0.83221 33959 ft 502 kts 32°
2026-05-04 15:40 45.10255 -0.78213 33955 ft 501 kts 32°
2026-05-04 15:41 45.16266 -0.73189 33946 ft 501 kts 32°
2026-05-04 15:41 45.22258 -0.68169 33951 ft 500 kts 32°
2026-05-04 15:42 45.27920 -0.63414 33950 ft 500 kts 32°
2026-05-04 15:42 45.33899 -0.58381 33945 ft 499 kts 32°
2026-05-04 15:43 45.39875 -0.53337 33942 ft 499 kts 32°
2026-05-04 15:43 45.45850 -0.48281 33942 ft 500 kts 32°
2026-05-04 15:44 45.51603 -0.43403 33940 ft 500 kts 32°
2026-05-04 15:44 45.57579 -0.38322 33937 ft 500 kts 32°
2026-05-04 15:45 45.63557 -0.33227 33939 ft 501 kts 32°
2026-05-04 15:45 45.69490 -0.28026 33937 ft 500 kts 34°
2026-05-04 15:46 45.75351 -0.22622 33934 ft 500 kts 35°
2026-05-04 15:46 45.81187 -0.17198 33936 ft 500 kts 35°
2026-05-04 15:47 45.86721 -0.12068 33935 ft 501 kts 34°
2026-05-04 15:47 45.92328 -0.06874 33926 ft 500 kts 34°
2026-05-04 15:48 45.98176 -0.01450 33938 ft 501 kts 35°
2026-05-04 15:48 46.06979 0.06744 33936 ft 503 kts 35°
2026-05-04 15:49 46.12822 0.12201 33934 ft 504 kts 35°
2026-05-04 15:49 46.18706 0.17709 33938 ft 504 kts 35°
2026-05-04 15:50 46.24589 0.23231 33937 ft 503 kts 35°
2026-05-04 15:50 46.30465 0.28761 33936 ft 503 kts 35°
2026-05-04 15:51 46.36007 0.33990 33938 ft 503 kts 35°
2026-05-04 15:51 46.41870 0.39537 33935 ft 502 kts 35°
2026-05-04 15:52 46.47691 0.45058 33938 ft 503 kts 35°
2026-05-04 15:52 46.53567 0.50590 33931 ft 504 kts 31°
2026-05-04 15:53 46.60083 0.54309 33942 ft 504 kts 15°
2026-05-04 15:53 46.66892 0.56745 33935 ft 502 kts 12°
2026-05-04 15:54 46.73710 0.58942 33936 ft 502 kts 12°
2026-05-04 15:54 46.80543 0.61146 33937 ft 502 kts 12°
2026-05-04 15:55 46.87363 0.63387 33936 ft 502 kts 12°
2026-05-04 15:55 46.93794 0.65525 33930 ft 502 kts 12°
2026-05-04 15:56 47.00649 0.67811 33933 ft 502 kts 12°
2026-05-04 15:56 47.06731 0.69273 33936 ft 500 kts
2026-05-04 15:57 47.13662 0.70137 33935 ft 500 kts
2026-05-04 15:57 47.20603 0.70857 33938 ft 500 kts
2026-05-04 15:58 47.27275 0.71532 33939 ft 500 kts
2026-05-04 15:58 47.34217 0.72248 33937 ft 500 kts
2026-05-04 15:59 47.40785 0.72936 33942 ft 500 kts
2026-05-04 15:59 47.47729 0.73736 33931 ft 501 kts
2026-05-04 16:00 47.54480 0.76268 33940 ft 501 kts 17°
2026-05-04 16:00 47.61079 0.79428 33943 ft 501 kts 18°
2026-05-04 16:01 47.67681 0.82727 33937 ft 500 kts 18°
2026-05-04 16:01 47.73930 0.85851 33933 ft 500 kts 18°
2026-05-04 16:02 47.80527 0.89131 33937 ft 500 kts 18°
2026-05-04 16:03 47.89258 0.93497 33935 ft 495 kts 18°
2026-05-04 16:03 47.96504 0.97165 33936 ft 494 kts 18°
2026-05-04 16:04 48.01918 0.99914 33941 ft 494 kts 19°
2026-05-04 16:04 48.12352 1.05223 33936 ft 491 kts 19°
2026-05-04 16:05 48.18832 1.08530 33938 ft 491 kts 19°
2026-05-04 16:06 48.28537 1.13482 33939 ft 490 kts 19°
2026-05-04 16:08 48.53123 1.26080 33946 ft 490 kts 19°
2026-05-04 16:09 48.70366 1.34799 33951 ft 491 kts 18°
2026-05-04 16:10 48.82219 1.40800 33959 ft 491 kts 19°
2026-05-04 16:11 48.95194 1.47408 33962 ft 491 kts 18°
2026-05-04 16:12 49.15295 1.52814 33960 ft 491 kts
2026-05-04 16:13 49.28129 1.58808 33958 ft 488 kts 36°
2026-05-04 16:14 49.38175 1.72679 33946 ft 485 kts 46°
2026-05-04 16:16 49.50352 1.90756 33958 ft 489 kts 44°
2026-05-04 16:17 49.63605 2.06209 33955 ft 489 kts 37°
2026-05-04 16:18 49.74234 2.18254 33942 ft 489 kts 38°
2026-05-04 16:19 49.87917 2.33918 33938 ft 490 kts 38°
2026-05-04 16:20 50.01364 2.49422 33936 ft 490 kts 38°
2026-05-04 16:22 50.14706 2.64917 33934 ft 490 kts 38°
2026-05-04 16:23 50.30499 2.83400 33944 ft 492 kts 38°
2026-05-04 16:25 50.46936 3.01128 33941 ft 493 kts 30°
2026-05-04 16:26 50.67775 3.18733 33946 ft 493 kts 29°
2026-05-04 16:28 50.82898 3.31392 33950 ft 493 kts 28°
2026-05-04 16:28 50.91986 3.39001 32709 ft 490 kts 28°
2026-05-04 16:29 51.03915 3.49040 30010 ft 478 kts 29°
2026-05-04 16:30 51.12559 3.56354 27792 ft 467 kts 28°
2026-05-04 16:31 51.18025 3.60996 25657 ft 477 kts 28°
2026-05-04 16:31 51.27135 3.65779 23400 ft 460 kts 360°
2026-05-04 16:32 51.36229 3.65439 21326 ft 439 kts 358°
2026-05-04 16:33 51.42177 3.65218 20486 ft 417 kts 358°
2026-05-04 16:33 51.47856 3.65031 19570 ft 405 kts 358°
2026-05-04 16:34 51.53456 3.64854 18671 ft 400 kts 358°
2026-05-04 16:34 51.55905 3.64777 18257 ft 399 kts 359°
2026-05-04 16:35 51.64141 3.64525 16903 ft 390 kts 359°
2026-05-04 16:35 51.71981 3.66396 15587 ft 383 kts 31°
2026-05-04 16:36 51.73959 3.69213 15156 ft 380 kts 50°
2026-05-04 16:36 51.76711 3.75885 14353 ft 378 kts 57°
2026-05-04 16:37 51.79476 3.83007 13464 ft 374 kts 57°
2026-05-04 16:37 51.80725 3.86206 13081 ft 371 kts 57°
2026-05-04 16:37 51.83374 3.92984 12425 ft 341 kts 57°
2026-05-04 16:38 51.85597 3.98672 11823 ft 310 kts 57°
2026-05-04 16:39 51.88934 4.07227 10735 ft 298 kts 58°
2026-05-04 16:39 51.91038 4.12535 10117 ft 294 kts 53°
2026-05-04 16:40 51.93925 4.17150 9729 ft 292 kts 41°
2026-05-04 16:40 51.96948 4.21453 9281 ft 282 kts 41°
2026-05-04 16:41 51.99802 4.25519 9001 ft 264 kts 41°
2026-05-04 16:41 52.03749 4.31161 8244 ft 245 kts 41°
2026-05-04 16:42 52.07275 4.36216 6937 ft 247 kts 41°
2026-05-04 16:43 52.09889 4.39970 5650 ft 256 kts 40°
2026-05-04 16:43 52.12426 4.43622 4686 ft 248 kts 40°
2026-05-04 16:43 52.13679 4.45430 4300 ft 241 kts 40°
2026-05-04 16:44 52.18308 4.52113 2907 ft 218 kts 41°
2026-05-04 16:45 52.20426 4.55177 2537 ft 204 kts 40°
2026-05-04 16:46 52.23357 4.59657 2008 ft 190 kts 46°
2026-05-04 16:46 52.24705 4.62829 1573 ft 166 kts 54°
2026-05-04 16:47 52.25796 4.65686 1045 ft 136 kts 53°
2026-05-04 16:47 52.26790 4.68185 716 ft 131 kts 53°
2026-05-04 16:48 52.28188 4.71856 321 ft 132 kts 53°
2026-05-04 16:48 52.28681 4.73112 112 ft 129 kts 57°
2026-05-04 16:49 52.29501 4.75262 4 ft 81 kts 57°
2026-05-04 16:49 52.29824 4.76097 2 ft 43 kts 57°
2026-05-04 16:50 52.30094 4.76813 4 ft 33 kts 57°
2026-05-04 16:50 52.30315 4.77405 3 ft 22 kts 80°
2026-05-04 16:51 52.30166 4.77479 5 ft 13 kts 218°
2026-05-04 16:51 52.30122 4.77370 6 ft 7 kts 250°
2026-05-04 16:51 52.30017 4.77130 5 ft 18 kts 236°
2026-05-04 16:52 52.29885 4.76850 5 ft 13 kts 219°
2026-05-04 16:52 52.29830 4.76744 5 ft 12 kts 238°
2026-05-04 16:53 52.29725 4.76469 5 ft 15 kts 238°
2026-05-04 16:53 52.29547 4.76003 5 ft 11 kts 238°
2026-05-04 16:54 52.29510 4.75956 5 ft 6 kts 180°
2026-05-04 16:55 52.29444 4.76015 5 ft 1 kts 148°
2026-05-04 16:55 52.29439 4.76020 5 ft 0 kts 148°